星链-35778(STARLINK-35778)

导读

STARLINK-35778是美国太空探索技术公司(SpaceX)星链星座的一员,于2025年12月08日由美国发射升空,属于低轨通信卫星。它旨在为全球范围内提供高速宽带互联网服务,尤其覆盖偏远、网络基础设施薄弱区域,进一步扩充星链星座的服务容量与覆盖范围,助力全球网络互联。

基本信息
目录编号:
66973
目录名称:
STARLINK-35778
国际标识:
2025-288Q
轨道中心:
EARTH
卫星名称:
星链-35778
卫星全名:
星链-35778(STARLINK-35778)
卫星状态:
在轨 (已飞行271 天)
发射日期:
2025-12-08 UTC
国别 :
美国 (US)
星等 :
--
轨道信息
数据来源 国际轨道数据
星历时间: 2026-09-05T07:52:46+0800
17小时前
查看轨道信息
半长轴: 6861.238km
偏心率: 0.0002257
轨道倾角: 43.003°
近地点辐角 23.132°
升交点赤经 90.509°
平近点角 336.964°
近地点: 481.552km
远地点: 484.65km
周期: 94.268分钟
每日圈数: 15.275628
详细信息
固有亮度:
5
最大亮度:
2.5
卫星平台:
Starlink V1.0
覆盖范围:
全球
运营商:
太空探索技术公司
运营商所在国:
美国
制造商(研发单位):
太空探索技术公司
制造商所在国:
美国
使用方式:
暂无
卫星简介
Starlink 计划是 SpaceX 推出的全球卫星互联网项目,通过发射低轨道卫星,为全球尤其是偏远地区提供高速、低延迟的互联网服务。自 2019 年起,Starlink 已部署数千颗卫星,旨在缩小全球数字鸿沟,推动互联网普及。该项目还为军事、航空等行业提供通信支持,带来广泛经济效益。
2D轨道图
3D轨道图
轨道高度分析图
轨道倾角分析图
轨道综合分析图
查看轨道综合分析图
交会数据列表
事件ID 空间交会对象 最接近时刻(TCA) 交会距离 交会风险概率(CRP) 交会风险指数(CRI) 操作
CDM_260906-105605-912106-697321
2026-09-06T
10:56:21+0000
1.628 km
极远距离
3.705692E-6 低风险 0.46
CDM_260905-235306-395106-697321
2026-09-05T
23:53:04+0000
2.076 km
极远距离
1.996738E-6 低风险 0.41
CDM_260907-003806-328506-697321
2026-09-07T
00:38:19+0000
2.440 km
极远距离
1.439456E-6 低风险 0.38
CDM_260907-021206-328506-697322
2026-09-07T
02:12:28+0000
2.883 km
极远距离
1.113575E-6 低风险 0.36